Theta_e
290 289 286 287 290 288 286 286 288 285 285 283 282 282 282 282 282 283 281 282 281 283 283 286 285 285 286 288 290 291 284 282 283 284 284 285 285 285 284 284 284 284 285 287 286 284 284 284 283 283 282 283 283 282 283 284 284 285 286 286 286 287 287 287 287 286 286 285 285 285 285 284 285 285 286 286 287 286 286 287 287 286 285 286 285 285
291 288 288 290 288 286 284 282 280 280 281 284 282 281 282 280 282 285 285 282 281 284 281 281 282 283 285 288 289 291 286 288 288 284 284 286 286 285 284 284 284 285 286 285 284 283 283 283 283 282 282 284 282 282 282 283 284 285 285 286 286 286 286 286 286 286 287 286 285 284 284 284 284 284 284 284 285 285 286 287 287 286 285 285 284 284
286 286 291 287 285 280 279 280 281 283 282 281 282 280 281 282 281 282 282 280 281 282 282 282 281 285 287 289 291 291 291 291 292 287 289 289 288 285 285 285 285 284 284 284 285 284 282 282 282 282 282 282 283 283 282 283 284 284 284 285 285 285 286 286 286 286 285 286 286 285 285 284 284 285 285 285 285 285 285 285 285 285 285 284 284 284
287 285 287 284 281 282 280 279 280 280 280 281 279 281 282 282 283 282 283 281 283 283 282 282 282 284 288 289 290 292 290 292 291 289 289 290 289 288 286 286 285 284 284 284 284 283 282 282 281 281 281 282 282 283 282 282 283 283 284 284 284 285 285 285 286 288 286 286 286 285 285 285 284 283 285 285 285 285 284 284 285 284 284 284 283 283
288 286 282 280 282 284 281 280 281 281 282 280 282 281 282 283 282 283 282 280 280 281 280 281 284 287 287 287 287 284 283 283 287 287 287 287 288 289 287 286 286 286 285 284 284 284 282 281 281 281 282 281 281 282 282 282 283 283 284 284 284 284 284 285 286 287 287 286 284 284 283 283 283 283 283 283 282 283 283 283 283 283 283 283 283 283
287 286 280 283 283 282 282 281 280 283 280 277 280 284 284 283 283 281 279 282 280 280 280 281 283 283 281 282 283 285 282 285 284 285 287 287 286 286 285 286 286 286 286 285 284 284 283 282 282 281 281 280 281 281 282 283 283 283 283 283 283 284 284 284 285 285 285 285 283 282 281 280 280 280 280 280 281 281 281 281 282 283 282 282 282 282
288 282 283 286 283 283 283 284 281 284 281 282 283 281 283 282 282 281 281 283 278 277 282 280 280 280 282 287 285 282 283 286 288 286 289 290 287 284 285 287 286 285 285 285 285 284 283 282 281 281 281 281 281 282 283 282 282 283 283 283 283 283 283 284 284 284 285 283 282 281 281 281 280 279 281 281 282 281 281 282 281 282 282 282 281 281
282 282 281 282 283 283 282 282 281 284 282 281 281 278 280 281 281 280 281 283 281 280 280 280 283 280 281 284 287 283 285 288 289 291 290 289 289 287 286 286 286 285 285 284 284 284 284 283 281 281 281 281 281 282 282 281 281 281 282 282 282 283 284 283 284 283 284 282 282 281 280 281 280 280 280 281 281 281 282 281 281 281 281 281 281 280
283 283 282 282 282 281 284 282 281 284 283 280 280 279 279 279 280 278 281 278 277 278 277 278 281 278 278 278 279 280 285 286 288 289 290 289 288 288 287 286 285 285 285 284 283 283 283 282 282 281 281 281 281 282 281 281 281 281 281 282 282 282 283 283 282 282 282 283 282 281 281 280 281 281 281 281 281 281 280 279 280 279 279 280 280 280
285 283 283 285 283 283 281 280 280 285 285 283 280 279 279 278 277 277 276 279 276 274 278 278 280 276 282 280 281 279 283 284 286 289 290 289 289 287 286 285 284 284 284 283 284 284 283 283 282 282 281 280 281 281 282 281 281 281 281 281 281 281 281 281 281 282 281 281 282 281 280 279 279 280 280 280 279 279 279 278 278 278 278 279 279 279
283 285 284 284 284 282 279 280 279 281 281 281 281 281 281 277 276 275 275 273 274 273 280 283 279 282 279 281 281 282 283 285 288 287 286 286 286 286 285 284 284 283 283 282 282 282 283 282 282 281 280 280 280 280 280 280 280 280 280 281 280 280 280 281 280 280 280 280 280 280 280 279 279 279 279 278 278 278 278 277 277 277 278 278 278 278
284 283 285 283 283 281 281 281 281 279 280 281 282 280 281 281 276 273 265 271 272 274 277 276 278 281 276 279 280 284 281 283 289 289 289 288 288 288 284 283 282 282 282 282 281 281 280 280 280 279 279 280 280 279 279 280 280 280 280 280 279 279 279 279 280 280 280 280 280 280 279 279 279 278 278 277 277 277 276 277 276 277 277 277 277 277
283 283 282 284 284 284 281 281 281 281 281 281 280 277 275 272 272 273 268 272 270 276 276 272 276 276 277 284 282 283 284 285 284 287 289 289 289 288 283 282 281 281 281 280 280 279 279 279 279 278 279 279 279 279 279 279 279 280 279 279 279 279 279 279 279 279 279 279 279 279 279 278 279 278 278 277 277 277 276 276 276 276 276 276 276 276
282 280 281 285 283 284 286 285 280 279 280 281 282 275 272 270 268 268 269 263 268 273 274 277 276 276 283 284 288 287 288 288 287 286 287 288 289 288 285 282 280 280 280 280 279 279 279 279 279 279 279 279 279 279 279 279 279 279 279 278 279 278 279 279 279 279 278 278 278 279 278 278 278 277 277 277 276 276 276 276 276 275 275 275 275 275
275 282 282 284 284 284 287 290 287 281 279 281 281 283 280 272 268 271 266 273 278 277 272 274 273 274 274 281 282 289 291 291 288 286 285 285 284 282 280 280 280 279 279 279 279 279 279 279 279 279 279 279 279 279 279 279 279 279 279 278 278 278 278 278 278 278 278 278 278 278 278 278 277 277 277 276 277 276 276 276 275 275 275 275 275 275
282 282 280 285 281 285 285 284 282 282 281 279 279 281 277 279 278 276 271 267 269 273 275 270 277 277 282 282 282 279 282 286 287 286 284 284 282 279 279 280 280 280 279 278 278 278 279 279 279 279 279 279 279 279 278 278 279 278 278 278 278 278 278 278 278 278 278 278 278 277 277 277 277 277 277 276 276 276 275 275 274 274 274 274 274 275
281 280 281 282 281 282 282 281 283 284 282 280 281 278 280 282 283 276 271 268 267 266 276 269 276 282 283 284 283 285 282 285 283 282 281 283 282 278 280 281 281 280 279 278 278 278 278 278 278 279 279 278 278 278 277 278 278 278 278 277 277 277 277 277 277 277 277 277 276 276 276 276 275 275 275 274 274 274 274 274 274 274 274 274 274 274
283 282 281 281 283 282 278 280 280 278 283 280 275 279 281 281 280 278 274 269 262 269 276 270 278 281 281 279 281 283 281 285 285 283 284 284 280 279 281 282 282 281 279 279 278 278 278 278 278 278 278 278 278 278 277 278 278 278 278 277 277 277 276 276 277 277 277 276 276 275 275 275 275 274 274 274 274 274 273 273 273 273 273 273 273 273
287 283 283 280 280 280 280 282 284 282 280 280 277 282 282 276 276 274 269 271 269 267 269 275 280 281 282 282 280 280 281 284 284 283 282 282 279 280 281 282 281 279 278 277 277 277 277 277 278 278 278 278 277 277 277 277 277 277 277 277 276 276 276 276 276 276 276 276 275 274 274 274 274 274 274 274 273 273 272 272 272 272 272 272 273 273
287 284 282 280 280 281 281 281 278 280 281 280 282 281 281 279 271 272 278 271 272 272 267 276 279 278 284 281 284 286 284 284 284 283 283 283 283 282 282 282 282 279 278 278 277 277 278 278 278 278 277 276 276 276 276 276 276 276 276 276 275 276 275 275 275 275 274 274 274 273 274 273 273 273 273 272 272 272 271 271 271 271 271 272 272 272
284 284 283 281 279 281 278 280 282 282 278 277 279 277 277 275 278 277 275 274 275 269 270 271 274 280 283 284 285 287 286 285 285 286 285 285 284 283 283 283 282 280 279 278 278 278 278 277 277 277 277 276 275 276 275 275 275 275 275 275 276 275 274 274 274 274 273 273 273 273 272 272 272 271 272 271 271 271 271 271 271 271 271 271 271 271
283 282 284 280 277 278 282 283 283 282 284 282 282 280 282 278 275 273 276 273 268 272 271 268 275 282 286 285 287 285 284 284 285 286 286 285 284 283 282 282 281 280 279 279 278 278 277 277 277 276 276 275 274 275 274 275 275 274 274 274 274 274 273 273 273 272 272 272 272 271 271 271 271 271 270 270 270 270 270 270 270 271 271 270 270 271
286 281 284 282 282 284 283 280 278 279 282 281 283 282 284 282 280 275 274 276 265 275 269 270 267 279 286 283 284 284 283 284 284 285 286 285 283 282 282 281 280 280 280 279 278 278 277 277 276 275 275 274 274 275 274 274 274 274 273 273 273 273 272 272 272 272 272 271 271 270 270 270 270 270 269 269 269 269 269 269 270 270 270 270 270 270
291 282 280 284 285 280 277 278 278 279 282 281 281 279 281 280 282 282 282 277 274 270 274 267 269 279 289 282 282 283 283 284 282 284 286 284 282 282 281 280 279 278 278 278 277 276 276 276 275 275 274 274 274 274 274 274 274 273 273 273 272 272 272 271 271 271 271 270 270 270 269 269 269 269 268 268 268 268 269 269 269 269 269 269 269 269
283 283 283 279 276 282 280 278 278 279 280 278 278 282 282 283 282 277 274 273 273 277 275 275 272 279 287 279 280 280 279 281 280 278 279 283 282 281 280 279 278 277 277 276 276 276 275 275 274 275 275 274 274 274 274 274 273 273 273 272 272 271 271 271 271 270 270 270 269 269 268 268 268 268 268 268 268 268 268 268 268 269 268 268 268 267
287 283 283 277 277 276 275 277 277 272 277 278 276 277 281 281 281 278 277 276 275 278 276 277 278 284 288 283 281 278 279 279 278 278 277 278 280 280 279 278 277 277 277 276 275 275 274 275 275 275 275 275 274 274 274 274 273 273 272 272 271 271 270 270 270 270 269 269 268 268 267 268 268 267 267 267 267 268 268 268 268 268 267 267 266 265
283 284 287 286 283 281 283 284 281 279 276 276 276 279 280 280 283 283 282 278 277 277 274 279 282 283 285 287 288 283 283 285 284 281 278 280 279 278 279 280 278 278 277 276 276 275 275 274 274 275 275 275 274 274 274 273 273 272 271 271 270 270 270 270 269 269 268 268 267 267 267 267 267 267 267 267 267 267 267 267 266 266 265 265 264 264
280 282 285 287 286 286 287 286 285 282 281 279 279 278 280 280 280 279 279 278 282 274 275 282 283 281 282 286 287 288 288 288 288 289 288 285 284 283 282 280 281 277 276 275 275 274 274 275 275 275 275 274 274 274 273 273 272 271 271 270 270 269 269 269 268 268 267 267 266 267 267 267 267 267 267 267 267 266 266 265 265 264 264 263 262 262
283 283 286 286 285 287 287 287 287 282 282 281 280 280 279 280 279 277 279 282 283 279 278 283 282 280 283 287 289 289 289 289 289 289 289 288 287 283 280 279 278 277 276 275 275 275 275 275 275 275 274 274 274 273 273 272 271 271 270 270 269 269 268 268 267 267 266 266 266 266 266 266 266 267 266 266 265 265 264 263 263 262 262 262 262 262
283 284 287 286 285 286 286 286 286 283 281 281 280 280 282 281 280 280 281 283 282 282 284 284 284 283 286 288 289 290 290 288 287 287 286 285 285 284 282 281 279 278 276 275 276 275 275 275 275 275 274 274 274 273 272 271 270 270 269 268 268 268 268 267 267 266 266 266 266 266 266 266 266 266 265 264 264 263 263 262 261 261 260 261 261 261
285 283 288 286 283 283 285 286 285 283 282 281 282 282 282 282 281 281 281 282 283 282 283 283 282 282 287 290 289 290 290 289 286 287 289 289 289 289 287 284 281 279 277 277 277 276 276 275 275 275 274 274 274 273 272 271 270 269 268 268 267 267 267 266 265 265 265 265 265 265 265 265 265 264 263 263 262 261 261 260 260 260 260 260 260 260
284 282 286 283 281 281 285 284 284 282 281 281 281 283 283 283 280 281 280 282 281 280 282 281 280 281 287 289 286 288 288 287 287 289 289 290 290 288 288 288 285 282 279 278 277 276 275 275 275 275 274 274 274 272 271 270 269 268 267 267 267 266 266 265 265 264 264 265 264 265 264 264 263 262 262 261 260 260 259 259 259 259 259 259 259 260
283 282 282 282 279 279 284 284 280 280 279 277 280 283 285 285 285 285 285 285 283 283 280 279 281 287 288 289 287 287 285 283 286 288 289 289 288 287 288 289 289 285 283 280 278 277 276 275 275 275 275 275 273 272 271 270 268 268 267 266 266 266 265 264 264 264 264 264 264 264 263 262 262 261 260 260 259 259 258 258 258 258 258 259 260 260
282 284 283 285 279 279 283 281 280 278 273 276 287 287 288 285 285 283 284 285 286 284 283 286 286 288 289 288 287 287 288 288 290 291 291 290 289 288 289 289 287 287 285 282 280 278 277 276 276 276 275 275 273 272 270 269 268 267 267 266 265 264 264 264 264 263 263 263 263 262 262 261 260 259 259 259 258 258 258 257 258 258 259 259 260 260
282 283 282 284 280 279 279 278 276 272 275 286 286 285 287 286 286 286 286 286 286 287 286 286 286 287 289 290 289 289 290 291 291 291 292 287 287 289 290 290 285 285 285 282 279 278 277 276 276 275 274 273 271 270 269 268 267 266 265 265 264 264 263 263 263 263 263 262 262 261 260 260 259 258 258 257 257 257 257 257 258 258 259 259 260 260
283 282 282 281 281 275 274 277 272 273 283 285 286 288 289 285 284 281 282 285 285 286 287 286 288 289 290 290 290 291 290 291 292 291 290 285 287 289 290 289 289 287 284 283 281 278 277 276 275 275 274 272 269 268 268 267 266 265 264 264 264 263 263 263 262 262 262 261 261 260 260 259 258 257 257 257 257 256 257 257 258 258 259 259 260 261
286 285 283 280 284 277 277 277 277 283 283 284 285 286 286 283 284 283 280 284 288 288 288 287 288 289 289 290 290 291 291 289 287 289 288 286 289 289 289 289 289 288 285 283 282 280 278 277 276 275 271 269 268 267 267 266 265 264 263 263 263 263 263 262 262 262 261 260 260 259 258 258 257 256 256 256 256 256 256 257 257 258 259 259 259 260
287 284 284 281 279 284 278 276 277 277 274 280 286 290 287 287 287 286 284 283 289 290 291 288 288 288 289 289 289 290 286 284 285 287 292 289 288 289 286 287 286 284 282 280 278 278 277 276 274 270 269 268 267 267 266 265 264 263 262 262 262 262 262 262 261 261 260 259 259 258 258 257 256 256 256 255 255 256 257 257 258 258 259 259 258 259
287 287 286 283 280 282 279 276 275 274 277 285 286 289 287 285 286 282 280 279 288 291 291 291 289 290 289 289 289 287 283 284 284 288 291 289 284 285 285 283 281 279 279 278 277 276 275 272 270 269 268 267 266 265 265 264 264 263 262 262 262 262 261 261 260 260 259 259 259 258 257 256 256 256 255 255 255 256 255 256 257 258 259 259 259 259
284 284 283 280 279 280 279 277 275 280 279 285 288 289 283 283 285 283 275 278 289 291 291 291 289 290 289 289 290 287 285 283 286 289 290 284 283 281 282 280 277 277 276 276 276 275 272 270 269 267 267 266 265 265 264 263 263 263 262 262 262 261 260 260 260 260 259 258 257 257 256 256 255 255 255 255 255 255 256 257 257 258 258 258 259 258
281 281 282 277 279 280 281 278 280 281 287 287 288 283 283 287 287 278 275 283 291 288 290 289 290 290 290 289 288 286 287 290 292 289 276 277 277 276 276 276 277 276 275 274 273 273 270 269 268 267 267 266 265 264 263 263 263 262 262 262 261 260 260 260 259 258 258 257 256 256 255 255 255 254 254 255 255 256 256 257 257 257 257 257 258 258
278 281 280 282 279 278 279 278 277 282 287 291 290 283 287 285 277 278 287 293 292 284 285 289 289 289 289 289 288 288 290 290 290 277 277 277 278 275 275 274 273 273 273 273 272 270 269 268 267 266 265 264 263 263 263 263 262 261 261 261 260 260 260 259 258 257 256 255 255 255 254 253 254 254 254 254 255 255 255 257 257 257 257 257 257 257
279 280 274 278 280 281 280 277 276 274 285 293 286 283 285 284 284 291 292 292 292 290 289 285 287 288 288 288 288 288 289 288 285 282 280 277 276 274 273 273 272 271 270 270 269 269 269 267 266 265 264 263 263 262 263 263 262 261 261 260 260 259 259 257 257 256 255 254 254 253 253 253 253 253 254 254 255 255 255 256 256 256 256 256 257 257
286 282 277 281 284 277 277 275 276 284 289 292 288 284 285 290 293 293 292 291 293 292 291 290 288 288 288 288 288 287 287 286 281 280 279 277 276 274 273 273 272 271 270 269 269 269 268 266 265 264 263 262 262 262 263 262 261 260 260 260 259 258 257 256 255 254 254 253 253 252 252 252 253 253 253 253 254 254 254 254 255 255 256 256 257 258
288 287 286 283 285 284 281 284 288 290 291 291 292 292 292 292 293 293 293 293 292 292 292 291 291 289 287 288 288 287 286 285 284 282 280 279 276 274 273 273 272 270 269 269 268 269 267 265 263 262 262 262 262 262 262 262 261 260 259 259 259 257 255 254 253 252 252 251 251 251 251 252 253 253 252 253 253 253 254 254 254 254 256 256 257 259
292 293 292 290 287 291 292 291 288 289 290 289 292 294 293 292 292 292 292 291 291 292 292 289 290 289 287 287 287 287 287 287 284 282 281 279 276 275 274 272 271 270 269 268 268 267 266 264 263 262 261 261 261 261 261 261 261 259 259 258 258 256 255 253 251 251 250 250 251 251 251 252 252 253 253 253 253 253 253 254 254 255 255 257 258 259
291 292 290 287 288 287 282 291 289 289 291 290 290 291 293 293 293 292 291 291 292 292 290 287 288 287 286 286 287 289 288 286 285 284 281 279 276 274 273 272 271 269 268 267 267 266 264 263 261 261 260 259 260 259 259 259 260 259 258 257 256 255 253 251 251 251 251 250 250 251 251 252 253 253 253 253 253 253 254 254 254 255 257 258 259 259
286 293 289 288 288 286 286 290 291 292 292 292 291 290 289 290 291 292 292 292 292 292 291 289 287 286 286 286 287 288 288 287 285 283 280 278 276 274 272 271 269 268 268 268 266 265 263 262 262 260 259 259 259 259 258 258 257 257 256 256 255 253 252 251 252 250 250 250 251 251 251 251 254 253 253 252 252 253 253 254 255 256 258 259 260 260
289 291 285 288 287 288 291 291 291 291 290 291 291 290 291 292 291 291 291 291 290 288 288 287 287 289 287 288 288 287 287 287 286 284 281 279 276 273 272 271 269 268 267 266 265 264 263 262 261 260 260 259 258 258 257 256 256 256 255 254 253 252 252 252 252 251 250 251 251 251 251 251 251 252 252 252 251 252 253 254 255 257 259 262 263 263
288 285 287 286 284 285 285 288 291 286 286 290 291 291 290 291 291 291 291 290 289 289 290 290 288 287 287 288 288 287 287 288 286 284 281 279 276 274 273 270 269 267 266 266 264 264 263 262 261 260 259 258 258 257 256 255 255 255 255 253 252 252 251 251 250 250 251 251 251 250 251 251 252 252 252 252 252 252 253 257 262 262 261 261 265 268
287 288 287 285 285 285 290 292 293 292 292 293 294 294 293 292 291 290 290 291 291 290 290 290 289 289 286 286 287 287 287 288 288 284 282 279 277 275 273 269 267 266 265 264 263 263 262 262 261 260 258 257 257 256 255 254 254 254 254 253 252 252 251 251 251 251 251 251 250 252 251 251 252 252 252 252 252 252 252 253 254 260 263 265 266 266
Wind_Speed
1 3 6 9 12 9 6 10 7 4 5 3 2 2 8 8 8 6 2 2 0 1 11 15 11 14 18 19 21 12 5 10 14 12 12 14 14 11 11 13 14 15 18 8 8 9 11 11 10 10 9 9 8 8 9 9 9 9 9 8 8 5 4 3 3 2 2 2 2 2 2 3 3 3 3 4 4 3 3 4 4 4 4 5 5 5
1 1 12 13 6 8 7 4 5 5 2 3 2 4 8 3 10 5 1 1 4 1 5 4 6 14 18 18 21 15 6 17 19 12 14 20 16 11 12 15 15 16 4 6 9 10 9 10 9 8 8 9 11 9 9 11 11 10 8 9 7 5 4 4 4 3 3 3 2 2 3 3 3 4 4 4 2 3 3 4 4 4 4 6 6 6
1 8 14 2 5 6 5 5 3 5 4 1 4 3 2 9 6 10 3 2 0 1 9 7 11 17 20 19 21 21 17 16 14 12 19 19 15 11 12 15 13 10 13 10 13 10 10 10 9 9 9 10 11 11 11 10 10 9 8 7 7 6 6 5 5 4 4 3 3 3 3 2 3 3 4 4 4 4 4 4 5 5 5 6 6 6
4 8 11 2 7 7 4 3 5 3 3 5 2 2 9 3 3 8 2 3 1 3 6 5 15 19 17 18 23 20 7 14 9 12 17 15 14 14 16 13 12 15 14 15 13 14 13 13 12 11 12 12 10 9 10 9 11 8 8 8 8 7 7 6 5 5 5 4 3 2 2 3 3 5 5 5 5 5 6 6 4 5 5 6 7 7
12 2 1 6 3 5 5 2 5 4 5 2 5 6 5 4 5 8 5 5 3 1 1 10 13 14 9 12 8 2 2 3 8 6 12 12 10 9 4 7 14 17 15 14 13 13 14 14 17 18 14 10 12 11 12 12 11 9 11 10 10 8 8 7 6 6 5 3 2 0 2 2 4 2 3 4 5 4 5 7 7 7 5 7 8 7
13 6 5 6 2 2 4 3 6 7 7 3 8 13 9 5 7 4 3 4 6 4 3 5 12 10 2 3 7 8 6 5 4 4 13 12 8 8 11 14 10 11 10 14 16 17 18 18 15 12 13 14 12 13 12 11 11 10 9 9 8 7 6 7 7 6 4 4 3 2 2 2 2 4 2 4 5 5 6 7 6 7 6 7 7 7
8 2 5 7 5 4 4 5 5 8 6 1 7 6 7 5 3 0 2 2 4 2 1 3 4 18 6 2 1 2 2 9 8 7 14 10 7 9 12 11 11 12 10 9 10 12 14 16 15 15 15 16 15 11 10 9 9 9 8 9 9 8 6 6 6 5 5 4 3 4 4 3 3 5 5 4 5 5 6 6 8 8 7 6 7 8
3 1 5 3 5 5 4 9 5 11 6 5 1 4 5 4 4 4 2 3 6 0 4 1 5 11 19 6 6 3 5 9 13 17 12 11 11 10 11 10 10 10 10 11 13 15 16 16 19 20 18 15 14 11 10 9 8 10 10 9 8 6 6 5 5 5 4 5 4 4 4 3 4 6 8 6 6 5 6 8 8 7 7 7 6 8
4 3 4 5 2 5 9 5 6 9 7 3 3 6 5 5 4 6 2 3 2 5 6 4 1 3 10 3 3 1 5 8 15 17 14 11 10 9 8 9 9 9 11 12 12 15 16 17 17 16 15 13 11 11 11 11 10 9 8 8 7 7 5 4 5 4 4 5 5 4 4 4 5 6 7 6 6 7 6 9 8 7 8 8 7 7
1 1 7 8 7 8 4 1 3 10 5 1 7 5 6 7 7 3 3 1 4 3 11 7 9 5 23 7 4 3 3 9 12 15 14 12 10 6 6 7 7 7 8 10 13 11 12 13 14 14 11 11 12 10 9 9 8 8 8 8 8 7 5 4 5 4 4 5 4 5 5 6 6 4 5 5 6 6 6 8 8 8 7 7 7 7
0 4 4 4 6 4 6 2 2 0 1 7 5 3 3 6 4 3 6 2 2 5 10 12 15 12 15 4 9 10 10 11 12 8 7 8 9 8 7 7 7 8 9 9 9 8 9 9 10 10 14 13 10 8 9 9 9 9 9 8 9 7 5 5 5 6 5 5 5 5 6 7 6 5 5 6 7 5 6 7 7 7 7 7 7 7
1 2 0 2 5 5 4 5 3 2 2 4 2 2 4 1 6 3 3 4 1 9 2 2 12 11 12 5 5 7 4 8 13 14 12 9 11 8 6 7 7 7 7 7 7 8 8 8 9 10 13 13 12 10 10 10 9 10 8 8 8 6 6 5 5 6 5 5 5 5 6 6 5 5 5 6 8 7 8 7 8 7 7 7 7 7
4 8 2 0 4 9 3 7 2 2 1 3 5 4 1 6 7 5 2 2 6 8 1 3 5 5 18 21 3 8 11 11 11 10 11 11 8 5 5 7 6 5 6 7 8 8 9 11 13 14 14 12 13 14 13 12 10 9 8 9 10 8 6 7 6 6 6 5 5 5 5 5 5 5 6 7 8 7 7 6 8 8 8 8 8 7
8 1 1 4 2 6 8 7 2 1 6 6 7 5 4 1 1 5 6 1 7 7 5 3 3 11 13 10 17 18 18 17 13 14 10 7 8 6 5 5 5 6 8 9 9 10 11 12 13 14 15 15 13 13 13 11 10 9 8 8 10 9 7 6 6 6 5 5 4 4 4 4 4 5 6 6 6 7 6 5 7 7 8 9 9 10
4 8 7 9 6 6 11 14 12 7 10 9 3 9 8 9 5 7 3 7 11 10 2 5 2 10 1 8 6 21 22 17 10 9 9 7 5 4 4 5 5 6 8 8 9 11 12 13 14 14 14 14 14 14 12 11 11 10 9 9 9 9 7 6 6 4 5 4 4 4 4 4 4 5 5 5 5 5 6 6 7 8 8 8 9 9
11 10 4 3 1 8 12 2 7 8 6 2 3 5 6 9 7 7 5 3 4 6 9 3 9 4 8 1 2 2 4 9 11 10 8 11 7 4 5 8 9 8 8 9 10 11 12 11 11 11 13 13 13 14 11 12 11 10 9 9 9 9 8 7 6 5 5 4 4 4 4 5 5 5 5 5 5 5 5 7 7 9 9 9 10 10
2 7 0 1 2 2 1 2 1 3 7 5 6 7 6 1 6 1 3 2 3 4 16 2 11 13 5 10 7 6 6 10 6 8 8 12 8 5 8 10 9 9 9 10 12 11 11 10 11 12 13 13 13 13 14 13 11 12 10 9 9 7 6 6 6 5 5 4 4 4 4 4 4 5 5 5 6 6 7 7 7 8 9 10 9 10
7 6 0 4 5 0 2 0 1 5 2 10 4 7 2 2 4 5 6 2 2 7 12 3 15 21 14 16 4 7 5 12 11 11 13 12 4 7 12 11 11 12 11 9 10 10 10 12 13 12 12 14 15 14 13 13 11 10 9 10 10 8 8 6 6 6 5 4 4 4 4 4 4 4 5 5 6 6 7 7 7 8 8 9 9 10
5 9 3 1 3 2 2 1 1 1 3 3 3 2 6 2 1 2 4 5 6 6 8 11 22 18 21 18 3 7 13 15 14 12 11 10 8 12 12 13 11 6 6 9 12 11 11 13 14 15 15 12 11 11 12 11 9 9 8 8 9 9 8 7 5 5 4 4 3 3 3 3 3 3 4 4 5 6 7 8 8 8 9 10 10 10
1 8 3 2 3 0 0 4 8 6 1 1 0 1 1 2 2 6 8 3 5 7 1 18 18 20 13 8 9 17 15 16 11 10 12 12 13 13 12 12 11 10 11 11 11 12 13 13 14 14 14 14 13 13 11 11 9 11 9 9 8 6 6 6 6 6 5 4 3 3 3 3 3 3 4 4 6 6 7 8 8 9 10 10 10 10
4 3 10 1 5 2 3 7 14 16 12 4 2 2 1 0 3 4 1 5 6 5 7 8 15 24 8 12 13 13 12 13 14 13 10 10 12 12 12 12 10 11 11 12 12 13 13 13 12 11 10 9 9 8 10 12 13 11 9 9 9 10 8 7 6 5 4 3 3 3 3 3 3 4 4 5 6 7 7 7 8 8 9 10 11 11
2 3 12 3 1 6 11 3 4 1 11 12 15 13 17 11 4 2 12 3 2 4 9 6 21 21 14 7 7 7 7 9 11 13 12 12 12 11 12 12 10 10 12 12 12 11 10 10 10 9 8 9 10 11 12 11 11 11 11 10 9 8 7 7 6 5 4 3 3 3 3 3 2 3 4 6 6 6 6 7 8 9 10 11 11 11
6 2 4 8 12 13 10 0 2 2 3 5 9 10 11 9 5 5 10 10 1 8 3 2 2 27 5 4 4 7 8 9 11 11 10 10 11 11 12 11 9 10 10 11 11 10 9 9 10 10 12 13 13 12 12 12 12 12 12 10 8 8 7 7 5 4 4 3 3 3 3 2 2 3 5 6 5 6 7 8 9 9 10 11 11 11
4 2 4 10 6 2 3 2 1 1 3 1 5 1 6 12 15 16 12 3 7 2 5 2 5 22 22 7 3 5 7 8 5 10 12 7 5 8 9 9 10 10 11 9 6 6 7 7 8 10 13 13 12 14 14 12 11 10 9 8 7 8 7 6 5 4 4 3 3 3 3 3 3 4 5 5 4 6 7 8 9 9 10 11 10 11
4 4 5 1 3 8 5 2 2 4 1 3 4 9 9 6 6 2 3 2 1 17 8 8 19 20 15 6 3 4 4 5 6 5 5 7 7 8 8 9 8 9 8 8 9 9 8 9 13 14 12 12 10 12 11 13 12 9 8 7 7 7 6 5 5 4 4 3 3 3 3 3 3 4 4 4 5 7 7 8 8 8 9 10 10 11
7 6 8 7 13 14 15 17 14 3 8 5 3 2 9 17 16 5 8 9 13 12 14 10 19 26 23 4 2 3 4 3 4 5 4 7 7 7 8 9 9 9 11 10 8 9 14 14 11 10 12 10 11 10 13 11 10 9 7 7 6 7 6 6 5 5 4 3 3 3 3 3 3 3 4 5 5 6 7 8 8 9 8 9 11 11
3 5 13 16 17 18 18 15 0 9 6 6 8 13 15 14 18 14 10 10 20 6 9 17 28 28 22 25 26 8 5 10 7 6 8 10 11 11 11 10 9 11 11 11 12 11 7 9 14 14 13 12 10 11 10 11 10 9 8 8 7 6 6 5 5 5 4 4 3 3 2 3 3 3 4 4 5 6 7 7 8 8 9 8 9 11
2 5 14 19 21 20 18 19 14 8 11 10 10 11 15 15 15 18 18 25 12 13 16 24 33 14 20 28 36 30 13 14 15 16 11 9 10 12 13 10 8 8 6 6 9 12 15 15 13 14 15 13 12 11 10 9 9 9 9 9 7 7 6 5 5 5 4 4 3 3 3 2 2 3 4 4 5 6 7 7 7 8 8 8 9 10
5 10 13 16 22 22 21 24 25 9 12 12 13 14 16 19 16 21 27 31 19 15 27 28 12 9 20 30 38 27 18 15 17 17 15 13 10 6 4 7 10 11 9 10 14 13 14 14 16 16 14 13 12 13 12 10 9 8 7 7 7 6 6 6 6 5 4 4 3 3 2 2 2 2 3 4 5 6 7 7 7 8 8 8 9 9
0 10 13 17 21 18 22 26 23 18 9 8 8 13 18 20 22 25 28 29 30 31 27 21 17 22 24 34 29 19 16 9 9 8 8 6 7 6 9 9 10 10 12 15 16 16 16 16 15 15 15 14 14 14 13 9 9 9 9 8 7 7 6 6 6 5 4 4 3 2 2 2 2 2 4 5 6 6 7 7 7 7 8 8 9 9
7 11 11 11 12 16 21 23 19 16 15 17 16 13 21 24 14 20 27 30 32 23 22 24 21 23 29 32 20 15 20 13 7 15 21 20 15 14 13 11 11 13 14 15 14 15 15 14 13 13 15 17 15 14 11 10 9 9 8 8 8 7 6 6 5 5 4 3 3 1 1 1 2 4 5 5 5 6 6 7 7 7 8 8 8 9
5 7 6 5 11 16 16 20 16 8 12 14 15 21 31 27 19 20 24 26 13 15 20 16 18 24 29 23 6 13 17 14 15 20 22 19 16 12 14 16 13 13 14 15 15 13 13 14 16 17 19 18 16 13 12 11 10 10 9 9 8 7 6 6 5 5 4 3 2 1 1 2 3 4 4 5 6 6 6 6 7 7 7 7 9 9
8 4 7 10 14 17 17 11 4 5 2 5 15 31 32 21 20 27 26 20 15 15 14 18 26 24 24 15 14 16 10 7 13 19 19 17 14 11 16 19 18 12 14 14 13 15 16 17 19 20 18 15 14 12 12 12 12 11 10 10 9 7 7 6 6 5 4 3 2 1 2 3 3 4 4 5 6 6 6 6 6 6 7 8 8 9
5 11 13 9 14 12 15 9 6 5 13 20 16 3 11 25 24 24 27 24 15 12 16 19 24 26 27 24 22 22 19 18 20 20 18 15 12 12 17 16 15 12 11 11 14 15 15 14 12 13 15 15 13 11 10 11 11 10 9 9 9 8 7 7 6 5 4 3 2 3 3 3 3 4 5 5 6 6 6 6 6 6 6 7 8 10
11 11 13 7 10 12 4 9 6 16 20 13 2 5 11 11 14 25 23 16 15 15 19 23 25 29 32 28 23 21 21 23 23 24 24 7 8 14 20 19 11 12 13 11 11 11 13 15 13 12 13 14 16 14 12 10 10 10 10 9 9 7 7 6 6 5 4 3 3 3 2 2 3 4 5 6 6 6 6 5 6 6 7 8 9 10
14 14 8 7 8 3 3 10 15 21 4 2 8 15 16 5 10 6 15 13 10 17 22 22 23 28 31 28 22 19 20 20 21 22 17 7 14 18 19 17 14 12 12 12 13 14 14 15 18 20 16 13 13 12 11 12 11 11 10 8 8 8 7 6 6 5 4 4 3 3 2 1 2 4 5 6 6 5 5 5 6 7 7 8 8 9
16 9 9 13 11 16 13 15 21 6 12 14 15 22 17 11 14 14 17 16 13 20 24 20 22 28 25 21 23 22 17 11 13 21 8 15 18 18 16 15 15 12 12 11 12 13 15 14 14 14 16 16 14 14 11 11 10 10 10 9 7 7 7 6 5 5 5 4 3 3 2 1 3 5 6 5 6 5 5 6 7 7 7 8 9 11
16 18 12 15 11 13 15 13 10 10 17 18 28 32 5 9 10 7 8 14 12 29 25 17 23 25 23 23 22 19 3 6 16 19 19 11 15 13 10 13 10 6 6 6 7 9 11 11 12 16 17 16 14 10 11 11 11 10 9 8 8 8 7 6 6 6 5 4 3 3 1 1 3 5 6 5 4 5 5 5 6 7 7 8 10 11
17 17 16 16 13 9 13 13 14 14 17 13 22 23 10 8 9 3 2 17 20 32 21 22 22 23 26 23 20 7 4 12 15 18 17 9 6 9 10 9 6 6 8 11 14 14 15 17 18 17 15 16 16 12 11 11 11 9 9 8 8 7 7 6 6 5 5 4 4 3 1 2 4 5 6 5 4 3 5 6 7 7 7 7 9 11
20 15 15 16 17 14 15 14 16 9 12 11 16 15 5 7 11 6 9 17 29 26 21 23 21 24 23 18 15 10 11 14 15 18 11 3 5 5 8 8 8 8 8 9 8 14 17 18 18 16 16 16 15 13 13 10 9 11 10 9 8 7 7 7 6 6 6 5 4 2 2 4 5 5 5 5 4 3 3 5 6 7 8 7 7 10
12 11 14 21 18 22 22 17 11 9 8 7 14 2 11 10 10 6 19 24 22 9 15 13 20 21 16 15 13 12 16 19 18 10 7 5 5 2 2 3 5 9 13 12 13 14 20 14 16 17 17 12 13 13 11 11 13 10 8 9 8 7 7 7 7 6 5 4 3 3 3 4 5 6 6 4 3 3 4 4 6 7 7 7 8 8
6 10 9 12 16 16 17 19 19 13 6 11 10 17 11 8 8 17 25 26 16 4 7 14 16 15 13 17 13 14 15 17 13 4 5 5 7 6 6 8 9 8 7 11 15 21 17 17 17 17 14 10 12 11 11 12 13 10 9 8 8 8 8 7 7 6 5 4 3 3 4 5 5 5 4 3 1 3 4 4 4 5 6 7 8 10
14 12 13 15 10 9 10 13 10 12 9 25 9 9 6 14 20 23 21 17 14 10 11 9 11 12 13 11 14 16 16 10 9 11 9 8 9 11 12 13 16 15 16 16 14 13 20 20 20 15 13 11 10 11 10 13 14 10 8 9 9 9 8 7 7 6 5 4 4 4 5 5 5 4 3 1 1 3 4 4 5 6 6 7 8 9
15 11 4 10 12 12 16 16 14 18 21 19 22 18 17 25 23 21 16 18 20 18 13 11 12 15 10 12 13 14 13 10 4 5 8 8 9 8 10 10 10 10 6 3 14 19 20 21 19 14 11 11 9 9 9 14 14 10 10 10 9 9 8 7 6 6 5 4 4 5 5 5 4 3 0 1 3 2 4 5 5 5 5 6 7 8
16 19 15 15 13 14 15 17 20 13 12 14 25 22 25 29 26 23 21 20 17 15 11 11 14 12 12 14 14 13 13 12 14 15 15 16 15 15 18 20 19 17 16 19 16 16 20 25 20 13 12 10 10 8 7 6 12 12 11 10 9 9 9 8 6 5 5 5 5 4 5 4 2 1 2 3 3 4 4 5 4 5 5 5 7 8
18 25 20 17 16 13 21 9 1 8 13 14 17 20 21 18 21 23 24 21 15 15 13 9 8 8 10 11 11 9 14 14 15 13 12 9 13 13 12 13 11 13 13 14 14 15 17 17 17 13 15 11 9 9 7 6 9 19 11 10 9 9 9 8 7 5 6 5 4 5 5 5 2 2 5 5 3 1 2 3 4 4 6 5 6 7
18 15 16 18 11 10 19 12 18 16 17 18 18 21 21 20 20 19 21 19 20 17 11 6 9 6 8 10 14 16 18 14 15 15 13 9 12 16 21 20 16 18 22 23 19 17 20 21 17 15 15 14 10 9 8 8 6 8 11 11 10 10 9 8 7 6 5 5 4 3 3 3 2 2 4 4 3 2 2 2 2 4 5 6 7 8
12 13 19 18 16 18 19 13 20 21 23 19 18 17 18 20 22 17 16 16 17 15 12 11 7 6 9 10 17 18 17 13 13 14 12 14 15 15 17 20 20 12 13 15 19 22 18 15 18 16 14 13 12 10 9 8 8 8 9 10 10 10 9 8 7 7 7 6 4 2 1 3 4 5 4 4 4 4 5 2 2 4 5 5 6 7
5 6 18 10 17 21 18 18 14 15 13 16 15 16 18 19 19 21 21 18 12 10 11 9 10 14 12 18 17 15 14 12 15 17 17 13 12 13 16 21 19 18 19 19 17 22 19 16 14 16 14 12 11 10 10 9 9 9 10 9 9 9 10 8 8 6 6 5 3 2 1 3 3 4 5 3 2 1 3 6 5 5 7 8 7 7
9 11 5 7 16 14 14 16 16 17 18 18 20 18 17 17 18 18 15 12 13 18 18 20 17 13 12 15 15 13 16 16 14 12 15 15 16 19 16 19 20 23 17 10 13 12 15 13 17 16 13 11 10 11 10 10 9 9 8 9 8 9 9 8 7 7 6 4 3 3 3 4 4 6 6 5 5 4 3 6 10 7 6 6 13 16
11 11 6 14 14 17 11 16 14 19 22 20 19 17 18 16 15 17 18 20 19 18 19 19 20 16 14 15 14 13 15 19 17 14 14 12 14 17 19 23 24 19 20 20 17 15 17 12 11 12 13 12 11 10 10 10 10 10 9 9 9 8 8 8 7 6 5 5 4 4 4 3 4 5 5 4 3 4 7 8 2 5 6 11 14 17
Wind_Direction
334 172 217 218 224 208 217 199 207 202 153 95 105 152 240 240 277 281 238 264 3 294 246 256 252 259 266 269 273 269 173 248 254 250 248 248 243 230 222 221 222 223 230 202 200 190 194 195 194 188 180 177 176 176 176 167 177 176 172 161 179 174 147 162 177 196 207 219 237 239 227 247 262 263 261 260 265 253 256 263 257 254 272 274 272 281
83 237 249 231 219 194 214 176 106 85 83 162 169 202 269 187 258 253 277 7 319 158 292 293 284 265 265 267 271 269 184 252 249 239 247 254 243 232 226 227 223 228 227 167 197 197 195 198 193 183 182 174 175 195 178 183 182 178 170 171 167 145 153 171 181 186 189 198 206 236 257 267 275 285 278 280 261 257 262 265 256 258 270 275 273 281
87 207 248 197 176 100 73 120 143 150 148 82 189 208 288 265 254 284 326 2 306 123 262 292 283 270 269 266 266 263 246 243 255 203 240 243 250 230 227 231 228 220 223 202 208 196 196 194 192 187 190 193 193 180 187 189 177 177 170 174 163 153 166 180 177 179 201 203 214 198 247 251 290 254 269 275 273 277 273 259 246 248 265 268 274 276
274 263 261 179 131 114 55 94 112 75 80 143 112 149 235 220 23 304 285 8 229 176 289 299 287 276 264 259 254 268 258 253 245 228 234 238 242 230 228 218 216 222 219 212 198 198 191 192 192 190 196 187 186 183 185 186 186 175 173 172 170 172 173 175 184 189 199 193 209 227 257 285 265 287 301 297 297 294 290 273 245 263 276 281 285 286
214 204 124 116 135 135 146 144 133 155 223 271 193 216 254 250 228 196 264 305 264 339 68 294 277 273 236 239 275 345 310 293 267 251 254 250 233 246 268 218 214 220 213 213 200 200 194 193 199 198 189 177 189 191 189 187 184 176 179 176 175 172 175 175 180 188 177 171 190 236 324 308 300 283 294 308 290 277 279 287 291 289 288 282 281 283
271 233 139 112 108 88 120 187 215 149 230 317 226 210 218 212 248 264 344 8 5 329 348 15 337 297 302 230 257 274 350 291 257 233 253 249 231 231 238 235 223 231 214 208 202 199 198 200 200 194 188 190 194 196 196 187 184 172 171 168 167 165 167 175 181 178 168 188 189 195 238 286 299 294 282 257 272 288 283 277 284 284 274 272 273 275
219 44 170 184 155 167 188 219 232 166 195 78 266 192 209 218 211 191 307 43 309 207 311 39 106 289 123 134 256 270 290 279 279 234 261 267 230 208 229 232 223 219 215 214 209 200 198 202 196 197 196 196 195 198 182 184 175 175 165 168 167 165 171 168 172 169 173 176 184 193 208 220 240 262 265 233 239 259 272 277 276 279 276 265 272 276
94 64 73 73 137 166 183 245 231 159 126 233 244 117 114 126 163 196 139 185 238 57 310 222 184 268 283 197 233 265 283 271 285 279 267 258 256 233 229 227 223 215 209 203 205 204 203 196 196 198 198 195 197 181 182 175 172 175 171 166 168 168 168 165 164 167 167 180 185 190 204 218 224 234 260 274 277 269 274 281 284 289 286 288 281 282
126 157 159 137 133 157 210 212 187 165 149 220 197 122 145 151 174 148 136 200 227 12 296 265 262 298 258 262 328 341 227 260 256 259 267 266 256 249 236 233 223 213 207 199 204 205 200 198 201 199 196 196 183 185 182 181 177 168 161 159 157 166 163 163 164 163 172 187 185 191 201 224 233 238 255 269 273 283 283 282 283 282 289 289 283 278
313 155 208 159 146 211 219 284 180 172 199 218 124 92 84 75 69 104 118 143 309 62 272 224 184 205 278 163 163 347 182 240 249 248 249 254 260 251 246 241 224 213 210 210 214 207 204 202 200 197 187 181 192 183 179 169 154 159 154 158 164 172 166 162 157 166 174 184 189 195 203 223 238 235 254 257 267 267 271 273 279 287 289 289 290 288
315 294 167 144 191 198 133 73 127 349 83 123 109 80 27 38 40 35 70 83 28 254 246 243 181 180 276 180 182 152 194 202 227 260 270 272 268 258 233 226 214 208 209 211 211 207 206 197 192 178 188 186 181 180 169 167 167 157 158 159 170 174 158 158 165 165 180 179 186 198 207 219 243 252 259 275 273 272 273 278 285 286 287 288 291 296
58 34 228 254 86 106 101 77 40 72 127 125 124 128 27 342 6 40 341 47 197 267 253 285 187 184 221 272 252 229 275 217 198 209 222 237 248 245 212 222 221 208 207 203 195 201 187 175 180 179 191 183 180 170 179 173 165 161 158 159 162 167 164 169 171 170 181 178 188 201 207 223 234 245 254 266 277 281 285 288 293 294 294 295 295 292
262 203 226 48 213 131 122 82 14 18 83 100 84 42 72 273 22 318 30 268 196 236 201 56 140 320 235 245 210 249 250 242 226 214 197 207 237 239 221 227 217 209 193 193 199 192 191 190 185 190 192 181 184 189 179 177 167 163 159 163 160 173 176 178 175 177 179 178 190 195 207 220 231 240 246 259 267 273 277 287 290 298 301 305 305 304
279 30 134 207 83 225 145 168 207 240 209 144 157 146 97 311 97 266 267 214 304 279 264 124 127 247 276 275 212 223 226 225 211 215 227 209 218 233 225 226 223 209 203 202 199 199 197 196 195 193 190 190 188 187 181 173 172 167 162 165 165 173 178 176 176 178 176 185 191 197 204 219 229 243 250 253 261 268 271 279 285 289 294 296 291 296
316 298 238 148 240 175 183 206 190 159 156 198 120 156 186 143 156 248 202 254 261 263 279 267 71 239 111 243 212 209 218 220 216 215 219 244 252 251 267 267 248 222 215 205 204 204 203 201 196 193 191 190 191 184 180 172 172 163 165 165 167 164 180 176 178 171 178 185 195 199 208 220 230 245 250 254 259 269 283 286 286 286 288 287 289 288
220 243 250 179 309 150 186 222 105 105 68 173 171 75 107 222 129 226 202 194 289 335 316 184 214 189 215 13 287 270 276 234 231 230 237 253 243 231 270 249 237 226 216 205 212 213 212 202 197 195 193 193 189 183 173 173 167 168 167 167 168 167 171 173 174 180 180 193 188 200 214 221 235 252 259 267 268 278 283 284 284 287 286 286 290 289
25 268 321 9 17 204 224 97 219 134 200 204 120 204 208 140 149 80 4 61 74 60 267 141 279 264 294 274 208 249 204 224 214 226 232 240 221 178 237 244 234 227 217 208 212 213 205 198 201 198 195 191 186 180 180 171 169 166 160 162 163 167 162 170 175 178 188 188 191 210 213 223 236 241 255 268 286 291 286 282 285 285 286 287 286 289
176 248 307 120 225 315 13 333 37 29 150 106 213 227 144 142 109 128 219 333 66 214 265 45 263 285 286 288 140 197 222 236 228 224 226 236 179 208 235 238 230 224 220 214 220 216 205 201 200 199 200 195 189 178 166 167 163 159 158 161 161 161 168 176 172 181 185 192 205 211 217 228 233 254 268 281 292 292 288 288 288 289 291 290 291 291
142 274 230 275 64 353 339 100 50 343 46 147 186 222 120 212 188 309 85 255 255 243 267 285 273 266 257 257 139 228 205 228 231 228 233 235 217 225 235 241 238 223 210 215 217 213 206 203 203 199 197 189 182 168 160 147 152 150 155 160 160 165 170 168 168 177 183 193 202 207 227 237 251 262 275 286 286 283 284 288 290 291 290 292 292 293
159 206 280 319 115 273 22 128 201 199 321 78 49 83 26 100 168 144 198 200 110 257 13 275 287 270 252 191 180 233 202 213 210 219 218 218 216 216 225 233 228 210 216 215 215 214 211 207 204 198 190 184 175 160 155 148 146 156 159 158 157 154 159 159 170 175 185 196 199 217 233 245 256 275 289 295 288 284 288 292 295 294 293 291 295 293
210 109 239 59 295 87 191 186 214 181 167 187 154 232 354 249 231 114 327 157 184 209 213 273 284 274 257 166 170 212 201 198 192 204 207 216 223 218 221 223 220 213 215 216 213 214 210 205 200 195 185 169 146 153 157 159 161 157 157 161 163 163 166 165 171 173 183 187 203 228 245 261 274 291 295 286 281 286 290 293 292 291 292 297 292 294
141 167 222 140 307 233 242 209 219 141 192 176 175 193 187 146 163 142 255 71 133 174 236 158 249 267 279 146 161 184 188 168 203 197 201 214 217 213 222 228 215 215 222 216 218 215 207 201 191 175 160 149 157 166 168 165 154 159 167 166 160 157 157 160 173 169 173 183 192 218 241 244 259 272 275 274 280 288 292 292 294 297 298 293 292 292
167 147 214 212 217 228 242 39 284 291 146 189 181 216 178 194 135 161 242 236 48 252 83 186 27 268 225 118 125 153 171 183 195 197 202 207 211 213 225 223 220 221 221 218 216 211 204 194 187 179 174 172 175 167 162 163 167 167 166 159 159 152 160 160 164 160 165 176 193 227 233 244 264 271 268 275 288 291 297 300 300 300 297 295 297 298
104 131 207 258 286 356 34 330 327 247 118 88 264 95 127 199 194 209 226 168 184 206 214 268 247 263 274 91 157 170 190 188 186 190 203 218 211 230 227 224 220 221 228 225 210 201 194 177 171 168 177 178 179 176 175 166 165 167 164 157 148 155 156 155 154 156 161 177 204 222 238 255 269 266 269 286 291 296 301 302 300 298 297 300 303 307
137 228 172 227 353 295 306 31 46 341 9 225 198 205 203 231 233 237 76 101 243 229 173 143 248 259 271 91 121 175 140 189 203 235 210 212 232 233 231 233 226 224 229 218 204 194 179 179 183 192 187 182 178 171 170 173 171 165 157 150 150 149 150 144 149 153 169 185 203 225 235 252 258 260 276 288 298 301 301 300 301 302 304 309 310 312
175 157 149 187 221 235 242 238 233 196 208 218 237 129 186 203 206 158 249 215 229 236 144 207 250 251 257 251 186 211 221 246 251 246 239 230 238 228 233 230 223 217 221 212 192 181 197 198 195 189 190 185 185 178 172 168 165 157 148 149 143 144 145 150 147 161 173 186 205 221 230 247 252 267 287 299 303 303 304 304 305 309 311 314 312 313
181 189 185 205 216 228 239 257 200 115 75 197 224 191 209 210 211 207 230 236 230 211 168 228 236 253 274 278 275 221 202 252 249 219 217 246 236 234 239 230 218 217 218 204 196 203 192 192 200 197 191 191 184 181 175 167 160 152 146 146 147 143 144 149 152 167 169 191 206 218 227 241 258 285 297 306 308 310 310 310 311 312 312 315 313 309
88 195 207 215 226 236 245 255 253 161 222 220 204 218 213 201 199 199 211 235 211 86 238 237 243 255 265 274 269 264 248 266 275 278 264 243 238 228 230 225 223 228 217 185 199 199 202 203 197 195 193 186 187 175 168 162 154 151 151 150 148 144 143 151 155 165 177 186 203 213 230 244 276 295 309 313 318 315 313 311 310 312 312 314 309 303
187 219 215 224 234 240 245 250 253 229 223 226 205 211 216 212 201 205 225 236 227 216 236 245 252 232 252 254 260 270 273 266 266 268 262 259 256 230 210 208 214 220 204 198 212 207 202 200 200 196 190 189 176 175 165 152 148 140 134 135 141 141 149 153 154 169 176 188 196 213 220 263 286 314 322 329 324 316 313 312 311 311 310 306 301 298
235 238 233 228 244 239 245 247 248 241 233 239 217 225 229 223 211 212 231 234 231 236 243 259 259 259 256 257 260 275 277 268 260 264 271 254 237 233 231 229 222 218 202 210 212 209 206 206 199 194 189 183 182 173 164 157 154 150 146 145 146 146 151 148 162 166 179 184 196 207 237 275 311 338 348 334 322 314 313 311 309 307 306 301 299 300
171 241 228 251 258 250 249 250 247 239 242 246 245 250 246 243 228 221 234 243 243 250 260 260 266 266 259 259 273 292 283 284 281 278 272 269 266 260 260 246 230 223 213 217 215 211 208 203 197 189 187 191 185 178 165 156 144 141 141 145 147 151 154 150 160 173 170 187 184 206 261 329 0 1 344 328 314 309 308 309 306 302 298 299 302 298
181 250 240 260 255 256 251 253 250 231 232 239 248 252 252 246 237 237 238 237 246 253 256 268 264 252 257 268 279 250 264 266 263 266 268 269 270 272 270 267 248 229 219 218 214 207 202 196 194 191 194 191 183 168 161 154 151 148 150 150 153 152 148 151 164 165 175 176 174 207 26 16 11 354 331 317 306 305 304 299 298 297 301 304 303 296
184 206 217 236 246 250 253 258 207 189 154 255 233 235 243 258 245 244 251 252 227 233 250 251 251 258 267 275 272 260 233 229 258 260 266 267 262 254 259 262 258 235 226 217 206 206 200 198 196 195 193 181 177 170 165 149 147 155 153 152 152 139 151 158 163 165 167 161 166 118 56 31 7 344 316 306 301 297 294 292 292 301 309 304 296 296
201 215 231 209 239 242 246 240 125 149 225 233 242 249 223 242 247 253 253 253 246 198 234 243 260 268 273 271 264 267 272 262 257 259 253 254 262 259 256 253 251 241 235 215 208 204 201 197 195 192 186 177 166 150 137 152 143 143 141 136 139 149 155 159 161 158 159 150 131 84 54 29 14 321 303 297 294 292 293 289 300 308 300 296 301 302
200 207 231 215 246 243 157 104 187 219 232 241 355 238 231 238 239 245 258 258 254 247 242 246 255 263 263 265 266 269 269 269 270 268 267 224 210 242 255 255 234 232 233 216 204 199 194 189 180 167 160 159 152 146 144 140 138 132 134 144 147 153 151 158 151 152 151 135 107 85 55 31 341 304 294 292 288 286 284 299 310 310 307 310 309 308
218 212 216 228 217 27 123 195 234 232 217 9 279 257 253 237 242 279 273 253 246 249 250 246 248 255 260 266 271 264 262 267 273 273 270 174 210 230 246 248 243 233 227 214 202 197 180 176 178 177 167 139 136 145 147 142 143 136 140 141 145 148 152 149 149 146 142 124 107 94 64 40 313 292 285 287 285 281 306 320 319 314 310 308 303 298
218 216 208 240 202 233 220 221 236 308 309 282 281 259 226 194 232 227 258 261 249 246 244 244 248 252 259 264 262 263 266 279 284 276 256 174 228 230 232 241 239 234 218 214 194 193 183 176 167 152 129 136 141 143 148 141 135 131 133 141 146 145 148 148 148 145 135 120 116 102 97 332 285 280 279 280 282 302 321 327 319 313 312 308 306 305
210 216 202 227 227 220 238 239 245 226 238 238 237 253 212 185 210 207 212 269 248 256 245 235 241 253 255 252 252 257 316 297 273 271 271 226 217 237 217 229 240 218 196 165 138 137 142 141 122 121 137 139 143 138 133 138 137 134 134 140 146 148 147 151 147 142 131 126 126 118 138 241 267 269 273 272 285 312 319 313 308 304 313 309 308 304
216 221 227 225 239 229 240 238 235 229 238 221 249 252 224 169 167 137 160 254 250 250 250 241 240 241 246 248 253 238 163 249 254 261 264 256 198 214 213 222 208 176 163 160 156 149 147 140 140 139 131 137 138 147 138 136 136 132 134 141 148 149 148 153 146 140 135 131 130 127 174 237 249 257 264 278 285 304 307 312 310 304 306 300 298 296
210 208 219 231 234 229 237 238 242 218 249 226 246 256 174 147 119 104 262 261 251 247 237 236 232 236 234 235 234 207 205 235 247 254 261 215 185 197 192 179 162 154 147 140 144 146 131 122 125 138 144 149 148 139 142 138 137 139 137 145 147 147 152 150 142 135 126 126 128 144 208 238 240 244 252 269 280 284 291 301 304 308 309 301 296 296
202 212 211 223 220 228 227 246 255 261 251 253 246 122 139 135 126 179 241 251 253 172 212 198 218 224 218 216 201 203 215 217 228 238 96 134 94 95 69 120 156 150 145 140 130 129 129 144 147 151 153 142 137 141 138 142 140 139 141 144 143 148 147 138 131 126 126 125 140 174 217 242 234 240 251 248 267 295 304 307 311 309 304 302 299 295
208 202 227 219 227 224 228 231 233 245 223 233 230 147 153 96 217 224 237 243 256 190 216 198 211 216 204 208 198 210 223 223 227 95 154 153 172 143 147 130 115 92 79 105 138 134 130 128 115 105 106 122 135 139 144 147 141 138 143 140 141 144 135 129 129 124 127 143 156 192 220 226 242 246 239 250 279 319 315 308 305 298 298 298 297 296
176 186 195 196 216 227 235 239 236 243 199 222 161 153 207 202 235 232 249 265 265 239 222 223 219 219 200 210 207 212 228 227 204 202 191 181 154 167 160 162 155 157 148 138 137 141 141 130 142 139 132 138 139 145 153 143 133 138 138 135 141 134 131 127 125 126 138 150 174 201 213 231 229 239 231 235 8 334 312 314 315 309 302 296 296 291
160 214 184 212 183 203 210 207 219 210 224 183 161 194 195 213 226 235 235 249 252 249 239 230 223 226 197 199 208 221 227 220 197 198 198 193 181 155 151 152 131 99 119 29 140 151 149 125 124 125 132 140 143 147 155 150 136 140 134 134 135 130 124 123 122 131 146 166 187 194 220 223 226 230 222 67 32 349 323 320 310 304 300 299 298 294
153 215 198 220 193 205 222 216 225 218 224 172 191 211 211 212 221 232 235 236 238 245 239 232 236 223 195 209 215 209 222 212 207 199 192 200 184 171 170 179 165 166 160 160 157 153 154 144 145 133 135 144 139 144 141 158 135 133 131 138 138 139 131 127 128 140 157 169 182 204 213 220 214 196 87 57 43 1 330 319 318 310 306 300 298 298
193 212 221 238 234 219 245 240 54 215 221 214 212 218 226 223 222 230 238 245 242 245 242 227 228 215 203 204 203 221 221 213 206 209 216 201 186 184 140 127 117 122 126 137 137 154 141 103 111 131 136 137 142 139 148 143 148 131 139 136 137 134 127 129 136 156 170 182 194 209 205 190 167 87 57 50 37 347 289 285 298 293 297 292 297 301
229 219 227 237 223 210 245 198 224 214 221 219 217 223 229 226 226 221 235 241 247 246 244 214 233 210 198 193 204 219 226 211 208 210 200 182 185 177 169 163 159 163 166 170 155 136 143 144 139 148 142 142 150 144 142 135 127 119 130 136 137 128 125 132 147 150 158 182 201 218 201 150 117 92 62 42 17 328 284 285 269 282 279 296 308 301
242 208 242 232 234 222 242 205 219 222 228 221 213 222 230 234 239 235 228 232 241 252 250 238 214 217 195 198 211 220 227 213 202 205 192 194 192 181 178 170 156 162 182 124 139 137 133 148 149 148 148 144 151 147 139 135 129 128 128 132 129 123 127 141 155 151 159 173 187 191 112 85 67 75 73 51 10 332 326 297 286 287 295 302 302 294
299 155 234 203 229 237 245 246 250 257 250 247 238 227 225 227 231 237 239 240 242 257 253 240 206 223 204 219 219 219 225 221 209 202 195 193 186 180 185 173 169 162 150 156 155 155 162 159 148 150 144 138 140 140 137 133 130 134 134 129 123 129 141 149 149 144 151 168 170 134 97 76 60 57 60 52 51 279 266 289 297 296 295 310 305 309
306 262 294 287 257 250 234 235 225 246 247 244 242 236 232 233 238 241 244 243 231 237 242 246 240 229 226 228 227 212 218 228 218 197 197 196 192 189 179 163 143 148 160 136 137 142 128 134 137 140 135 132 137 137 135 134 133 136 132 122 128 143 147 145 140 145 147 154 145 128 99 70 53 51 44 21 357 341 306 260 271 292 300 302 330 336
236 247 237 246 243 252 240 242 238 244 248 247 249 242 236 231 233 237 239 241 236 231 234 237 244 243 235 236 230 215 218 227 223 196 199 193 200 188 181 162 153 159 151 147 135 144 150 152 134 122 126 133 138 136 135 135 140 141 134 133 143 155 156 149 140 137 141 142 141 132 103 95 73 58 48 24 2 347 332 331 293 249 300 337 343 341